Cotulla, TX

3:35 AM CST on November 17, 2019 (GMT -0600)
Cotulla-La Salle County

Weather History for KCOT - August, 2019

Change the Weather History Date:

Sunday, August 4, 2019

  Actual Average Record
Temperature  
Mean Temperature 90 °F -  
Max Temperature 102 °F 97 °F 108 °F (2011)
Min Temperature 79 °F 73 °F 73 °F (2003)
Cooling Degree Days 26    
Growing Degree Days 40 (Base 50)    
Moisture  
Dew Point 67 °F    
Average Humidity 50    
Maximum Humidity 77    
Minimum Humidity 26    
Precipitation  
Precipitation 0.00 in - - ()
Sea Level Pressure  
Sea Level Pressure 29.88 in    
Wind  
Wind Speed 9 mph (ESE)    
Max Wind Speed 15 mph    
Max Gust Speed 24 mph    
Visibility 10 miles    
Events      
Averages and records for this station are not official NWS values.
T = Trace of Precipitation, MM = Missing Value Source: NWS Daily Summary

Daily Weather History Graph

Daily Weather History Graph

Search for Another Location

Airport or City:

Astronomy

Aug. 04, 2019 Rise Set
Actual Time 7:00 AM CDT 8:25 PM CDT
Civil Twilight 6:34 AM CDT 8:50 PM CDT
Nautical Twilight 6:04 AM CDT 9:20 PM CDT
Astronomical Twilight 5:33 AM CDT 9:52 PM CDT
Moon 10:50 AM CDT (8/4) 11:26 PM CDT (8/4)
Length of Visible Light 14h 15m
Length of Day
13h 25m
Waxing Crescent, 18% of the Moon is Illuminated
Aug 4
Waxing Crescent
Aug 7
First Quarter
Aug 15
Full
Aug 23
Last Quarter
Aug 30
New

Hourly Weather History & Observations

Time (CDT) Temp. Heat Index Dew Point Humidity Pressure Visibility Wind Dir Wind Speed Gust Speed Precip Events Conditions
12:53 AM 84.9 °F 88.2 °F 68.0 °F 57% 29.89 in 10.0 mi SE 11.5 mph - N/A   Clear
1:53 AM 84.0 °F 88.4 °F 70.0 °F 63% 29.88 in 10.0 mi SSE 10.4 mph - N/A   Clear
2:53 AM 82.0 °F 85.9 °F 70.0 °F 67% 29.88 in 10.0 mi SSE 9.2 mph - N/A   Clear
3:53 AM 81.0 °F 84.9 °F 71.1 °F 72% 29.88 in 10.0 mi SSE 5.8 mph - N/A   Clear
4:53 AM 79.0 °F - 71.1 °F 77% 29.88 in 10.0 mi SE 6.9 mph - N/A   Partly Cloudy
5:53 AM 80.1 °F 83.6 °F 71.1 °F 74% 29.91 in 10.0 mi East 4.6 mph - N/A   Scattered Clouds
6:53 AM 80.1 °F 83.8 °F 72.0 °F 76% 29.92 in 10.0 mi East 4.6 mph - N/A   Scattered Clouds
7:53 AM 80.1 °F 83.8 °F 72.0 °F 76% 29.92 in 10.0 mi ESE 8.1 mph - N/A   Mostly Cloudy
8:53 AM 81.0 °F 85.8 °F 73.0 °F 77% 29.91 in 10.0 mi SSE 10.4 mph - N/A   Clear
9:53 AM 84.9 °F 91.4 °F 73.0 °F 67% 29.94 in 10.0 mi ESE 9.2 mph - N/A   Clear
10:53 AM 87.1 °F 92.8 °F 71.1 °F 59% 29.94 in 10.0 mi ESE 5.8 mph - N/A   Clear
11:53 AM 91.9 °F 94.1 °F 64.9 °F 41% 29.94 in 10.0 mi ESE 5.8 mph - N/A   Clear
12:53 PM 95.0 °F 97.0 °F 64.0 °F 36% 29.91 in 10.0 mi SE 11.5 mph - N/A   Clear
1:53 PM 97.0 °F 97.4 °F 61.0 °F 30% 29.90 in 10.0 mi East 5.8 mph - N/A   Clear
2:53 PM 99.0 °F 99.5 °F 61.0 °F 28% 29.88 in 10.0 mi North - - N/A   Clear
3:53 PM 99.0 °F 99.5 °F 60.1 °F 28% 29.86 in 10.0 mi SE 5.8 mph - N/A   Clear
4:53 PM 102.0 °F 103.3 °F 61.0 °F 26% 29.83 in 10.0 mi East 8.1 mph - N/A   Clear
5:53 PM 100.9 °F 101.6 °F 60.1 °F 26% 29.82 in 10.0 mi North - - N/A   Clear
6:53 PM 100.0 °F 100.7 °F 60.1 °F 27% 29.81 in 10.0 mi East 6.9 mph - N/A   Partly Cloudy
7:53 PM 99.0 °F 99.5 °F 60.1 °F 28% 29.81 in 10.0 mi East 9.2 mph - N/A   Clear
8:53 PM 95.0 °F 94.8 °F 60.1 °F 31% 29.82 in 10.0 mi East 5.8 mph - N/A   Clear
9:53 PM 91.9 °F 95.4 °F 66.9 °F 44% 29.84 in 10.0 mi SE 12.7 mph - N/A   Clear
10:53 PM 90.0 °F 93.6 °F 68.0 °F 48% 29.87 in 10.0 mi SE 15.0 mph 24.2 mph N/A   Clear
11:53 PM 87.1 °F 90.6 °F 68.0 °F 53% 29.88 in 10.0 mi SE 13.8 mph - N/A   Partly Cloudy